Terminal Aerodrome Forecast
Issued by NWS

Home | Current Version | Previous Version | Graphics & Text | Print | Product List | Glossary On
Versions: 1 2 3 4 5 6 7 8 9 10 11 12 13 14 15 16 17 18 19 20 21 22 23 24
000
FTUS42 KMHX 041735
TAFPGV
TAF
KPGV 041735Z 0418/0518 22015G25KT P6SM SCT035 SCT250
      TEMPO 0418/0420 3SM BR OVC007
     FM050500 21010KT 3SM BR BKN005
     FM051500 04011KT P6SM -RA BKN010
      AMD LTD TO CLD VIS AND WIND=

USA.gov is the U.S. government's official web portal to all federal, state and local government web resources and services.